Hourly Weather Bolshie Ryabinki

Today, 18 June, Friday

Time Temperature Precipitation Wind Pressure Humidity
00:00 +13°C° 0 mm 3 mps 749 mmHg 91%
01:00 +13°C° 0 mm 3 mps 750 mmHg 90%
02:00 +13°C° 0 mm 3 mps 750 mmHg 90%
03:00 +13°C° 0 mm 3 mps 750 mmHg 88%
04:00 +13°C° 0 mm 3 mps 750 mmHg 87%
05:00 +13°C° 0 mm 3 mps 750 mmHg 86%
06:00 +16°C° 0 mm 3 mps 750 mmHg 80%
07:00 +18°C° 0 mm 4 mps 750 mmHg 75%
08:00 +20°C° 0 mm 4 mps 751 mmHg 69%
09:00 +21°C° 0 mm 4 mps 751 mmHg 67%
10:00 +22°C° 0 mm 5 mps 751 mmHg 64%
11:00 +23°C° 0 mm 5 mps 751 mmHg 62%
12:00 +23°C° 0 mm 5 mps 751 mmHg 61%
13:00 +23°C° 0 mm 5 mps 751 mmHg 61%
14:00 +25°C° 0 mm 4 mps 750 mmHg 60%
15:00 +23°C° 0 mm 4 mps 750 mmHg 64%
16:00 +23°C° 0 mm 4 mps 750 mmHg 68%
17:00 +22°C° 0 mm 4 mps 750 mmHg 71%
18:00 +21°C° 0 mm 3 mps 750 mmHg 77%
19:00 +19°C° 0 mm 3 mps 750 mmHg 84%
20:00 +17°C° 0 mm 3 mps 750 mmHg 90%
21:00 +17°C° 0 mm 3 mps 750 mmHg 90%
22:00 +16°C° 0 mm 3 mps 751 mmHg 91%
23:00 +14°C° 0 mm 3 mps 751 mmHg 92%

Tomorrow, 19 June, Saturday

Time Temperature Precipitation Wind Pressure Humidity
00:00 +14°C° 0 mm 3 mps 751 mmHg 92%
01:00 +14°C° 0 mm 2 mps 751 mmHg 93%
02:00 +14°C° 0 mm 2 mps 751 mmHg 93%
03:00 +14°C° 0 mm 2 mps 751 mmHg 92%
04:00 +15°C° 0 mm 2 mps 751 mmHg 92%
05:00 +15°C° 0 mm 2 mps 751 mmHg 91%
06:00 +17°C° 0 mm 3 mps 751 mmHg 86%
07:00 +19°C° 0 mm 3 mps 751 mmHg 80%
08:00 +20°C° 0 mm 3 mps 751 mmHg 75%
09:00 +21°C° 0 mm 4 mps 751 mmHg 73%
10:00 +22°C° 0 mm 4 mps 751 mmHg 70%
11:00 +25°C° 0 mm 4 mps 751 mmHg 68%
12:00 +25°C° 0 mm 4 mps 750 mmHg 67%
13:00 +26°C° 0 mm 3 mps 750 mmHg 65%
14:00 +26°C° 0 mm 3 mps 750 mmHg 63%
15:00 +26°C° 0 mm 3 mps 750 mmHg 67%
16:00 +25°C° 0 mm 3 mps 749 mmHg 70%
17:00 +25°C° 0 mm 3 mps 749 mmHg 74%
18:00 +24°C° 0 mm 3 mps 749 mmHg 79%
19:00 +21°C° 0 mm 3 mps 749 mmHg 84%
20:00 +19°C° 0 mm 2 mps 749 mmHg 90%
21:00 +18°C° 0 mm 2 mps 749 mmHg 90%
22:00 +17°C° 0 mm 2 mps 749 mmHg 91%
23:00 +16°C° 0 mm 2 mps 749 mmHg 91%

Day after tomorrow, 20 June, Sunday

Time Temperature Precipitation Wind Pressure Humidity
00:00 +16°C° 0 mm 2 mps 749 mmHg 91%
01:00 +16°C° 0 mm 2 mps 749 mmHg 91%
02:00 +15°C° 0 mm 2 mps 749 mmHg 91%
03:00 +15°C° 0 mm 2 mps 749 mmHg 90%
04:00 +16°C° 0 mm 2 mps 749 mmHg 90%
05:00 +16°C° 0 mm 2 mps 749 mmHg 90%
06:00 +18°C° 0 mm 2 mps 749 mmHg 84%
07:00 +20°C° 0 mm 3 mps 749 mmHg 79%
08:00 +21°C° 0 mm 3 mps 749 mmHg 74%
09:00 +22°C° 0 mm 3 mps 749 mmHg 70%
10:00 +23°C° 0 mm 4 mps 749 mmHg 67%
11:00 +25°C° 0 mm 4 mps 749 mmHg 63%
12:00 +26°C° 0 mm 4 mps 748 mmHg 62%
13:00 +26°C° 0 mm 4 mps 748 mmHg 61%
14:00 +27°C° 0 mm 4 mps 748 mmHg 60%
15:00 +26°C° 0 mm 3 mps 748 mmHg 64%
16:00 +26°C° 0 mm 3 mps 748 mmHg 68%
17:00 +25°C° 0 mm 3 mps 747 mmHg 73%
18:00 +24°C° 0 mm 3 mps 747 mmHg 77%
19:00 +21°C° 0 mm 3 mps 747 mmHg 82%
20:00 +20°C° 0 mm 2 mps 747 mmHg 87%
21:00 +19°C° 0 mm 2 mps 747 mmHg 87%
22:00 +19°C° 0 mm 3 mps 747 mmHg 88%
23:00 +18°C° 0 mm 3 mps 747 mmHg 89%

21 June, Monday

Time Temperature Precipitation Wind Pressure Humidity
00:00 +18°C° 0 mm 3 mps 747 mmHg 90%
01:00 +17°C° 0 mm 3 mps 747 mmHg 90%
02:00 +17°C° 0 mm 3 mps 746 mmHg 91%
03:00 +17°C° 0 mm 3 mps 746 mmHg 90%
04:00 +18°C° 0 mm 3 mps 746 mmHg 89%
05:00 +18°C° 0 mm 3 mps 746 mmHg 88%
06:00 +20°C° 0 mm 4 mps 746 mmHg 84%
07:00 +21°C° 0 mm 4 mps 746 mmHg 79%
08:00 +23°C° 0 mm 5 mps 746 mmHg 75%
09:00 +25°C° 0 mm 5 mps 746 mmHg 72%
10:00 +26°C° 0 mm 5 mps 746 mmHg 69%
11:00 +27°C° 0 mm 5 mps 746 mmHg 66%
12:00 +28°C° 0 mm 5 mps 746 mmHg 65%
13:00 +28°C° 0 mm 5 mps 746 mmHg 64%
14:00 +29°C° 0 mm 5 mps 745 mmHg 63%
15:00 +29°C° 0 mm 5 mps 745 mmHg 67%
16:00 +28°C° 0 mm 4 mps 745 mmHg 70%
17:00 +28°C° 0 mm 4 mps 745 mmHg 74%
18:00 +26°C° 0 mm 4 mps 745 mmHg 79%
19:00 +25°C° 0 mm 4 mps 745 mmHg 85%
20:00 +22°C° 0 mm 3 mps 745 mmHg 90%
21:00 +22°C° 0 mm 3 mps 745 mmHg 90%
22:00 +21°C° 0 mm 3 mps 745 mmHg 91%
23:00 +20°C° 0 mm 3 mps 745 mmHg 91%

22 June, Tuesday

Time Temperature Precipitation Wind Pressure Humidity
00:00 +20°C° 0 mm 3 mps 745 mmHg 91%
01:00 +19°C° 0 mm 3 mps 745 mmHg 92%
02:00 +19°C° 0 mm 3 mps 745 mmHg 92%
03:00 +19°C° 0 mm 3 mps 745 mmHg 90%
04:00 +19°C° 0 mm 3 mps 745 mmHg 89%
05:00 +20°C° 0 mm 3 mps 745 mmHg 88%
06:00 +21°C° 0 mm 4 mps 746 mmHg 82%
07:00 +23°C° 0 mm 4 mps 746 mmHg 77%
08:00 +26°C° 0 mm 5 mps 746 mmHg 72%
09:00 +27°C° 0 mm 5 mps 746 mmHg 69%
10:00 +28°C° 0 mm 5 mps 746 mmHg 66%
11:00 +29°C° 0 mm 5 mps 746 mmHg 62%
12:00 +29°C° 0 mm 5 mps 746 mmHg 63%
13:00 +30°C° 0 mm 5 mps 746 mmHg 63%
14:00 +30°C° 0 mm 5 mps 746 mmHg 63%
15:00 +30°C° 0 mm 4 mps 746 mmHg 66%
16:00 +29°C° 0 mm 4 mps 746 mmHg 70%
17:00 +28°C° 0 mm 4 mps 746 mmHg 74%
18:00 +27°C° 0 mm 3 mps 746 mmHg 79%
19:00 +26°C° 0 mm 3 mps 746 mmHg 84%
20:00 +24°C° 0 mm 3 mps 746 mmHg 89%
21:00 +22°C° 0 mm 3 mps 746 mmHg 89%
22:00 +22°C° 0 mm 3 mps 745 mmHg 90%
23:00 +21°C° 0 mm 3 mps 745 mmHg 90%

23 June, Wednesday

Time Temperature Precipitation Wind Pressure Humidity
00:00 +21°C° 0 mm 3 mps 745 mmHg 90%
01:00 +20°C° 0 mm 3 mps 746 mmHg 90%
02:00 +20°C° 0 mm 3 mps 746 mmHg 90%
03:00 +20°C° 0 mm 3 mps 746 mmHg 89%
04:00 +21°C° 0 mm 3 mps 746 mmHg 89%
05:00 +21°C° 0 mm 3 mps 746 mmHg 88%
06:00 +24°C° 0 mm 3 mps 746 mmHg 84%
07:00 +25°C° 0 mm 4 mps 746 mmHg 79%
08:00 +27°C° 0 mm 4 mps 746 mmHg 74%
09:00 +28°C° 0 mm 4 mps 746 mmHg 70%
10:00 +29°C° 0 mm 4 mps 746 mmHg 66%
11:00 +30°C° 0 mm 5 mps 746 mmHg 62%
12:00 +30°C° 0 mm 5 mps 746 mmHg 61%
13:00 +32°C° 0 mm 4 mps 746 mmHg 60%
14:00 +32°C° 0 mm 4 mps 746 mmHg 59%
15:00 +30°C° 0 mm 4 mps 746 mmHg 63%
16:00 +30°C° 0 mm 4 mps 746 mmHg 66%
17:00 +30°C° 0 mm 4 mps 746 mmHg 70%
18:00 +28°C° 0 mm 3 mps 746 mmHg 76%
19:00 +27°C° 0 mm 3 mps 746 mmHg 81%
20:00 +25°C° 0 mm 3 mps 746 mmHg 87%
21:00 +24°C° 0 mm 3 mps 746 mmHg 87%
22:00 +22°C° 0 mm 3 mps 746 mmHg 88%
23:00 +22°C° 0 mm 3 mps 746 mmHg 88%
Show more